Location: DARK SKY Beskydy - Park tmavé oblohy, www.darkskybeskydy.cz
(49.4926°N, 18.5016°E)
Time: 11:09:05
(UTC+02:00)

BlueWalker 3 - Pass Details

Date: 24 June 2024
Orbit: 480 x 491 km, 53.2° (Epoch: 23 July)

Event Time Altitude Azimuth Distance (km) Brightness Sun altitude
Rises 00:56:21 0° 292° (WNW) 2,540 5.8 -17.1°
Reaches altitude 10° 00:58:31 10° 294° (WNW) 1,658 4.8 -17.1°
Maximum altitude 01:02:15 73° 19° (NNE) 506 2.0 -17.0°
Drops below altitude 10° 01:05:59 10° 106° (ESE) 1,653 4.4 -17.0°
Sets 01:08:08 0° 108° (ESE) 2,531 5.4 -17.0°
